Location: Barrio Pajares
(40.5500°N, 4.1667°W)
Time: 05:43:22
(UTC+00:00)

Celestis-02/Orion 38 - Pass Details

Date: 18 April 2024
Orbit: 773 x 863 km, 108.0° (Epoch: 22 May)

Event Time Altitude Azimuth Distance (km) Brightness Sun altitude
Exits shadow 21:30:03 68° 196° (SSW) 833 4.5 -25.6°
Maximum altitude 21:30:33 75° 245° (WSW) 803 4.5 -25.7°
Drops below altitude 10° 21:35:38 10° 331° (NNW) 2,332 7.9 -26.3°
Sets 21:37:57 0° 333° (NNW) 3,269 8.9 -26.7°
